CAPE
3 5 7 5 2 2 2 4 0 0 0 0 0 0 0 0 0 0 0 0 0 0 0 0 0 0 0 0 0 0 0 0 0 0 0 0 0 0 0 0 0 0 0 0 0 0 0
19 3 1 4 1 3 3 2 1 0 0 0 0 0 0 0 0 0 0 0 0 0 0 0 0 0 0 0 0 0 0 0 0 0 0 0 0 0 0 0 0 0 0 0 0 0 0
28 29 29 7 7 7 3 3 1 0 0 0 0 0 0 0 0 0 0 0 0 0 0 0 0 0 0 0 0 0 0 0 0 0 0 0 0 0 0 0 0 0 0 0 0 0 0
15 12 11 17 27 16 3 4 1 0 0 0 0 0 0 0 0 0 0 0 0 0 0 0 0 0 0 0 0 0 0 0 0 0 0 0 0 0 0 0 0 0 0 0 0 0 0
11 10 8 7 9 9 7 4 3 0 0 0 0 0 0 0 0 0 0 0 0 0 0 0 0 0 0 0 0 0 0 0 0 0 0 0 0 0 0 0 0 0 0 0 0 0 0
8 6 4 2 2 2 2 2 1 1 0 0 0 0 0 0 0 0 0 0 0 0 0 0 0 0 0 0 0 0 0 0 0 0 0 0 0 0 0 0 0 0 0 0 0 0 0
5 3 3 2 2 1 0 0 0 0 0 0 0 0 0 0 0 0 0 0 0 0 0 0 0 0 0 0 0 0 0 0 0 0 0 0 0 0 0 0 0 0 0 0 0 0 0
7 5 4 1 0 0 0 0 0 0 0 0 0 0 0 0 0 0 0 0 0 0 0 0 0 0 0 0 0 0 0 0 0 0 0 0 0 0 0 0 0 0 0 0 0 0 0
6 6 5 4 4 2 1 0 0 0 0 0 0 0 0 0 0 0 0 0 0 0 0 0 0 0 0 0 0 0 0 0 0 0 0 0 0 0 0 0 0 0 0 0 0 0 0
2 6 6 5 3 2 1 0 0 0 0 0 0 0 0 0 0 0 0 0 0 0 0 0 0 0 0 0 0 0 0 0 0 0 0 0 0 0 0 0 0 0 0 0 0 0 0
2 6 9 5 2 1 0 1 0 0 0 0 0 0 0 0 0 0 0 0 0 0 0 0 0 0 0 0 0 0 0 0 0 0 0 0 0 0 0 0 0 0 0 0 0 0 0
13 11 6 3 2 0 0 0 0 0 0 0 0 0 0 0 0 0 0 0 0 0 0 0 0 0 0 0 0 0 0 0 0 0 0 0 0 0 0 0 0 0 0 0 0 0 0
11 12 7 4 2 1 0 0 0 0 0 0 0 0 0 0 0 0 0 0 0 0 0 0 0 0 0 0 0 0 0 0 0 0 0 0 0 0 0 0 0 0 0 0 0 0 0
5 6 7 2 0 0 0 0 0 0 0 0 0 0 0 0 0 0 0 0 0 0 0 0 0 0 0 0 0 0 0 0 0 0 0 0 0 0 0 0 0 0 0 0 0 0 0
4 5 3 0 0 0 0 0 0 0 0 0 0 0 0 0 0 0 0 0 0 0 0 0 0 0 0 0 0 0 0 0 0 0 0 0 0 0 0 0 0 0 0 0 0 0 0
4 2 1 0 0 0 0 0 0 0 0 0 0 0 0 0 0 0 0 0 0 0 0 0 0 0 0 0 0 0 0 0 0 0 0 0 0 0 0 0 0 0 0 0 0 0 0
1 2 3 0 0 0 0 0 0 0 0 0 0 0 0 0 0 0 0 0 0 0 0 0 0 0 0 0 0 0 0 0 0 0 0 0 0 0 0 0 0 0 0 0 0 0 0
0 0 0 1 0 0 0 0 0 0 0 0 0 0 0 0 0 0 0 0 0 0 0 0 0 0 0 0 0 0 0 10 0 0 2 2 7 1 0 0 0 0 0 0 0 0 0
0 0 1 1 0 0 0 0 0 0 0 0 0 0 0 0 0 0 0 0 0 0 0 0 0 0 0 0 0 0 0 0 0 0 0 1 0 0 0 0 0 0 0 0 1 0 0
0 0 1 1 0 0 0 0 0 0 0 0 0 0 0 0 0 0 0 0 0 0 0 0 0 0 0 0 0 0 0 0 0 0 0 3 2 2 0 8 0 0 0 0 1 0 0
4 4 2 3 0 0 0 0 0 0 0 0 0 0 0 0 0 0 0 0 0 0 0 0 0 0 0 0 0 0 0 0 0 0 2 0 0 0 0 0 0 0 9 8 0 0 3
3 3 3 3 0 0 0 0 0 0 0 0 0 0 0 0 0 0 0 0 0 0 0 0 0 0 0 0 0 0 0 0 0 0 0 0 0 0 0 0 0 0 0 0 0 0 0
4 3 2 2 2 0 0 0 0 0 0 0 0 0 0 0 0 0 0 0 0 0 0 0 0 0 0 0 0 0 0 0 0 0 0 0 0 0 1 0 0 0 0 0 0 0 0
2 2 1 3 3 1 1 1 0 0 0 0 0 0 0 0 0 0 0 0 0 0 0 0 0 0 0 0 0 0 0 0 0 0 0 0 0 0 7 5 1 0 0 0 27 26 35
2 2 2 3 4 4 4 8 3 0 0 0 0 0 0 0 0 0 0 0 0 0 0 0 0 0 0 0 0 0 0 0 0 0 0 0 0 32 1 0 0 0 0 1 2 13 43
2 2 2 3 2 5 2 4 10 1 0 0 0 0 12 2 0 0 1 0 0 0 4 3 0 0 0 23 30 8 5 0 0 0 0 0 0 0 0 1 3 0 0 0 0 0 0
1 1 2 2 2 1 1 2 6 7 1 1 0 4 5 4 0 0 0 0 2 6 7 3 4 7 11 0 1 0 0 0 1 0 0 0 0 0 0 1 0 0 1 5 0 0 0
1 0 1 1 1 1 2 2 4 4 0 7 4 0 2 2 0 0 0 0 0 1 3 0 1 0 0 2 5 0 2 1 0 0 4 0 1 0 0 1 0 12 0 0 1 4 2
2 1 0 2 0 0 2 2 2 2 2 15 3 0 0 4 0 0 0 0 0 0 0 6 6 6 3 1 0 5 4 3 4 0 0 0 0 0 0 0 0 0 0 0 0 1 0
CIN
-3 -1 -1 -1 0 0 0 0 0 0 0 0 0 0 0 0 0 0 0 0 0 0 0 0 0 0 0 0 0 0 0 0 0 0 0 0 0 0 0 0 0 0 0 0 0 0 0
0 -1 -2 0 0 0 0 0 0 0 0 0 0 0 0 0 0 0 0 0 0 0 0 0 0 0 0 0 0 0 0 0 0 0 0 0 0 0 0 0 0 0 0 0 0 0 0
0 0 0 0 0 0 0 0 0 0 0 0 0 0 0 0 0 0 0 0 0 0 0 0 0 0 0 0 0 0 0 0 0 0 0 0 0 0 0 0 0 0 0 0 0 0 0
0 0 0 0 0 0 -2 0 0 0 0 0 0 0 0 0 0 0 0 0 0 0 0 0 0 0 0 0 0 0 0 0 0 0 0 0 0 0 0 0 0 0 0 0 0 0 0
0 0 0 0 0 0 -1 0 0 0 0 0 0 0 0 0 0 0 0 0 0 0 0 0 0 0 0 0 0 0 0 0 0 0 0 0 0 0 0 0 0 0 0 0 0 0 0
0 0 0 0 0 0 0 0 0 0 0 0 0 0 0 0 0 0 0 0 0 0 0 0 0 0 0 0 0 0 0 0 0 0 0 0 0 0 0 0 0 0 0 0 0 0 0
0 0 0 0 0 0 0 0 0 0 0 0 0 0 0 0 0 0 0 0 0 0 0 0 0 0 0 0 0 0 0 0 0 0 0 0 0 0 0 0 0 0 0 0 0 0 0
0 0 0 0 0 0 0 0 0 0 0 0 0 0 0 0 0 0 0 0 0 0 0 0 0 0 0 0 0 0 0 0 0 0 0 0 0 0 0 0 0 0 0 0 0 0 0
0 -1 0 0 0 0 0 0 0 0 0 0 0 0 0 0 0 0 0 0 0 0 0 0 0 0 0 0 0 0 0 0 0 0 0 0 0 0 0 0 0 0 0 0 0 0 0
-1 0 0 0 0 0 0 0 0 0 0 0 0 0 0 0 0 0 0 0 0 0 0 0 0 0 0 0 0 0 0 0 0 0 0 0 0 0 0 0 0 0 0 0 0 0 0
0 0 0 0 0 0 0 0 0 0 0 0 0 0 0 0 0 0 0 0 0 0 0 0 0 0 0 0 0 0 0 0 0 0 0 0 0 0 0 0 0 0 0 0 0 0 0
0 0 0 0 0 0 0 0 0 0 0 0 0 0 0 0 0 0 0 0 0 0 0 0 0 0 0 0 0 0 0 0 0 0 0 0 0 0 0 0 0 0 0 0 0 0 0
0 0 0 0 0 0 0 0 0 0 0 0 0 0 0 0 0 0 0 0 0 0 0 0 0 0 0 0 0 0 0 0 0 0 0 0 0 0 0 0 0 0 0 0 0 0 0
0 0 0 0 0 0 0 0 0 0 0 0 0 0 0 0 0 0 0 0 0 0 0 0 0 0 0 0 0 0 0 0 0 0 0 0 0 0 0 0 0 0 0 0 0 0 0
0 0 0 0 0 0 0 0 0 0 0 0 0 0 0 0 0 0 0 0 0 0 0 0 0 0 0 0 0 0 0 0 0 0 0 0 0 0 0 0 0 0 0 0 0 0 0
0 0 0 0 0 0 0 0 0 0 0 0 0 0 0 0 0 0 0 0 0 0 0 0 0 0 0 0 0 0 0 0 0 0 0 0 0 0 0 0 0 0 0 0 0 0 0
0 0 0 0 0 0 0 0 0 0 0 0 0 0 0 0 0 0 0 0 0 0 0 0 0 0 0 0 0 0 0 0 0 0 0 0 0 0 0 0 0 0 0 0 0 0 0
0 -1 0 0 0 0 0 0 0 0 0 0 0 0 0 0 0 0 0 0 0 0 0 0 0 0 0 0 0 0 0 -3 0 0 -21 -24 -3 0 0 0 0 0 0 0 0 0 0
0 0 0 0 0 0 0 0 0 0 0 0 0 0 0 0 0 0 0 0 0 0 0 0 0 0 0 0 0 0 0 0 0 0 0 -1 -1 0 0 0 0 0 0 0 0 0 0
-1 0 0 0 0 0 0 0 0 0 0 0 0 0 0 0 0 0 0 0 0 0 0 0 0 0 0 0 0 0 0 0 0 0 0 -5 -2 -3 0 0 0 0 0 0 0 0 0
0 0 0 0 0 0 0 0 0 0 0 0 0 0 0 0 0 0 0 0 0 0 0 0 0 0 0 0 0 0 0 0 0 0 -5 0 0 0 0 0 0 0 0 -1 0 0 -1
0 0 0 0 0 0 0 0 0 0 0 0 0 0 0 0 0 0 0 0 0 0 0 0 0 0 0 0 0 0 0 0 0 0 0 0 0 0 0 0 0 0 0 0 0 0 0
0 0 0 0 0 0 0 0 0 0 0 0 0 0 0 0 0 0 0 0 0 0 0 0 0 0 0 0 -2 -8 0 0 0 0 0 0 0 0 0 0 0 -1 0 0 0 0 0
0 0 0 0 0 -1 -1 -1 0 0 0 0 0 0 0 0 0 0 0 0 0 0 0 0 0 0 0 0 0 0 0 0 0 0 0 0 0 0 -5 -15 -3 0 0 0 -28 -3 -30
0 0 0 0 0 -2 -2 -2 -3 0 0 0 0 0 0 0 0 0 0 0 0 0 0 0 0 0 0 0 0 0 0 0 0 0 0 0 0 -8 -1 0 0 0 0 -5 -7 -42 -48
0 0 0 0 0 -1 -1 -1 -2 -4 0 0 0 -1 -3 0 0 0 -2 0 0 0 -6 -6 -5 0 0 -2 0 -1 -3 -1 -44 0 0 0 0 -1 0 -3 -6 0 0 0 0 0 0
0 0 0 0 0 0 0 -1 -1 -1 -5 -2 0 -9 -1 -1 0 0 0 0 0 0 -1 -1 -1 -1 -1 0 0 0 -1 0 -2 -1 0 0 0 -13 -2 -2 0 0 -29 -21 0 0 0
0 0 0 0 0 0 0 0 -1 -1 0 -3 -2 -1 -1 -1 0 0 0 0 0 -1 0 0 -1 0 -1 -1 -1 -1 -4 -6 -4 0 -3 0 -1 0 0 -4 0 -18 -2 -1 -13 -7 -15
0 0 0 -1 0 0 -1 -1 0 0 0 -1 -2 0 0 0 0 0 0 0 0 0 -2 -1 -1 0 0 -2 0 -4 -5 -2 -2 0 0 0 0 0 0 0 0 0 0 0 0 -7 0
Wind_Speed
30 26 24 22 17 12 11 10 10 11 10 10 13 14 13 13 13 15 16 17 17 18 18 18 19 19 18 20 22 16 15 17 18 18 19 18 17 17 20 21 23 27 27 25 26 25 25
29 28 24 22 20 13 10 10 11 12 14 15 15 15 14 14 15 16 17 18 19 19 19 19 19 19 19 24 18 15 15 17 18 18 19 18 18 19 22 23 23 23 26 30 27 27 26
23 22 22 22 19 16 11 10 11 12 13 13 14 14 15 15 16 17 18 19 20 20 20 20 20 19 22 27 20 16 16 19 18 18 20 19 19 19 21 24 25 24 28 29 27 26 29
19 14 13 12 12 13 13 11 9 9 10 11 12 13 14 15 15 17 18 19 21 22 22 21 20 20 26 22 21 19 19 21 20 18 19 21 19 21 20 24 24 24 26 31 24 23 27
14 13 11 10 9 8 8 8 7 7 7 8 9 11 12 13 15 16 17 19 20 21 22 22 21 21 25 22 21 23 18 20 20 19 20 20 19 21 21 21 28 26 33 31 34 23 25
13 11 9 9 8 7 6 6 6 5 6 6 8 9 11 13 14 14 16 18 19 20 19 20 22 23 24 20 17 17 14 17 19 19 21 19 20 21 20 20 30 30 31 32 33 28 26
12 8 7 5 4 4 4 5 4 4 4 5 6 8 10 11 13 13 14 16 17 18 20 20 19 21 21 19 15 15 15 14 18 19 21 21 22 17 20 21 28 30 32 36 33 30 31
8 7 5 3 2 1 1 0 1 2 2 4 6 7 9 11 12 13 14 15 14 8 19 20 22 25 28 21 22 17 14 13 14 17 18 23 23 25 28 27 30 33 37 39 41 35 35
3 5 4 3 3 4 5 5 5 5 6 6 6 7 9 11 12 14 14 15 17 18 7 20 11 12 12 6 14 18 9 16 17 17 18 21 22 22 24 28 31 32 35 40 43 40 39
13 10 11 11 9 8 8 8 9 10 11 11 11 10 11 12 16 13 15 18 18 18 7 9 13 15 13 11 14 14 6 13 17 23 21 22 26 26 29 29 26 36 31 36 40 41 49
17 15 14 13 13 12 11 11 11 11 11 11 11 10 10 10 13 14 10 15 18 15 16 13 14 15 14 11 18 17 13 13 13 18 19 23 27 28 28 27 27 34 32 34 34 39 43
15 17 16 15 15 15 15 14 14 14 14 13 11 9 7 14 14 12 8 14 15 18 17 15 15 16 15 13 16 17 16 15 19 20 21 22 26 26 28 28 26 30 31 33 35 36 49
21 18 15 15 15 16 17 18 19 20 20 17 12 6 13 14 14 13 15 16 19 18 19 20 20 22 18 21 20 19 20 20 23 34 35 32 29 28 25 32 30 28 30 42 46 43 51
23 22 22 22 22 22 23 24 26 26 25 21 6 16 16 16 12 16 17 17 20 21 22 23 30 28 24 26 23 25 25 27 23 25 39 43 53 28 23 25 31 31 31 39 50 51 56
25 26 27 27 28 27 26 27 28 30 29 23 20 19 21 25 20 17 17 20 22 23 26 30 32 28 24 23 31 32 29 30 30 26 34 42 41 29 35 32 28 36 40 37 49 55 57
28 29 31 31 30 30 30 31 32 34 33 29 20 20 25 26 21 20 18 19 18 24 27 26 28 26 29 34 35 36 32 29 33 30 32 37 61 37 36 33 31 34 35 45 40 56 62
29 30 31 32 33 33 34 35 35 36 35 28 20 20 24 28 20 21 18 19 20 26 30 28 27 27 29 33 33 35 31 36 37 42 34 40 45 58 48 46 50 46 45 42 45 49 61
29 31 32 33 34 35 35 36 37 38 36 28 22 20 25 25 20 20 20 22 24 27 29 26 25 26 29 35 34 33 35 30 34 37 41 38 46 66 65 55 48 47 51 47 54 60 55
30 32 33 33 35 35 36 37 38 39 38 26 22 19 24 22 21 23 23 23 24 27 28 27 27 30 31 33 39 32 34 36 39 44 42 41 47 64 69 53 36 38 42 47 50 46 57
31 32 33 34 35 37 38 39 39 40 39 26 22 21 24 24 23 24 28 27 28 26 25 27 28 28 34 36 33 39 44 39 42 43 42 42 47 51 62 61 57 68 63 57 51 58 60
31 32 33 34 35 37 37 39 40 41 38 25 26 22 22 23 26 27 27 27 31 31 26 29 29 31 37 40 45 43 45 50 42 42 34 39 54 50 55 57 59 63 65 61 67 59 59
30 31 32 33 34 36 37 38 39 41 34 28 25 25 24 25 25 28 28 28 30 29 30 33 33 34 38 43 44 53 46 46 47 43 43 39 54 51 60 55 55 62 61 62 60 67 65
29 30 31 32 33 34 35 36 37 38 33 27 26 24 24 25 26 28 28 27 29 33 31 27 34 43 43 44 38 40 41 43 44 45 46 44 45 46 56 51 50 54 52 55 54 56 54
28 29 30 31 32 33 34 34 34 34 31 26 25 25 27 28 26 28 28 28 31 33 35 35 36 41 37 37 40 38 40 41 37 37 33 35 37 36 44 42 44 36 38 39 41 42 42
27 28 29 29 31 31 32 32 31 31 29 28 25 26 26 30 27 28 29 32 34 35 36 37 36 31 32 39 47 47 46 38 35 33 26 20 26 34 40 43 42 40 32 39 43 43 24
27 27 28 29 30 30 30 30 30 28 29 27 26 23 25 32 30 28 34 34 37 38 37 33 31 34 34 38 39 46 48 43 33 31 24 20 28 32 39 41 42 34 46 37 37 41 34
26 27 27 28 28 28 29 29 29 28 27 26 26 21 25 30 28 28 32 34 32 35 38 38 36 35 30 39 43 41 38 28 28 29 33 32 34 35 34 37 37 32 33 32 38 43 47
25 25 27 27 27 27 27 27 28 28 28 26 25 20 24 29 30 27 28 30 31 30 36 35 41 32 33 34 34 32 29 24 28 26 27 35 36 38 33 31 37 27 42 43 46 50 51
24 24 25 25 25 25 26 27 27 26 26 26 27 22 19 24 29 31 26 23 22 24 29 27 28 32 27 31 27 26 26 27 25 27 36 25 19 32 28 33 32 45 50 53 48 46 50
Wind_Direction
73 80 85 93 110 137 153 162 174 182 192 200 190 191 200 208 212 217 218 221 228 232 240 248 254 261 262 255 256 282 295 289 284 284 282 289 291 293 288 288 282 273 274 276 278 280 284
76 78 86 92 101 122 146 163 171 173 171 173 177 186 195 202 210 214 216 219 222 229 241 250 257 266 263 251 278 297 305 298 289 289 285 289 292 295 289 286 285 291 281 277 284 283 287
80 82 86 91 98 107 125 145 159 166 172 178 185 190 195 200 203 207 212 216 218 226 233 246 258 272 263 226 279 299 308 298 297 296 285 293 295 295 298 291 291 293 286 286 286 287 284
83 81 81 81 91 102 111 123 140 161 175 184 190 195 199 204 211 216 220 222 222 224 230 246 265 272 239 273 282 290 299 293 296 299 297 296 301 295 296 297 298 295 294 287 296 289 289
87 87 85 83 83 90 101 113 127 143 162 182 195 203 209 215 219 224 228 229 224 222 226 241 262 268 235 280 288 285 297 297 298 298 299 300 303 295 298 295 292 294 287 288 288 291 293
89 91 91 90 89 91 98 111 127 144 165 184 199 209 214 216 220 226 235 223 221 230 247 256 261 247 249 290 309 311 313 305 304 303 300 300 298 293 294 289 286 289 290 290 290 300 289
90 92 92 92 89 89 99 111 125 147 167 184 200 213 222 225 226 235 240 206 211 206 205 190 207 214 271 293 319 324 320 319 308 306 297 297 292 279 281 280 289 292 291 290 294 298 291
88 87 84 76 58 30 1 311 217 209 215 230 240 244 241 239 233 222 182 145 146 204 232 226 213 221 239 304 306 318 324 327 317 305 305 300 290 294 296 291 287 288 289 288 290 294 290
33 346 354 358 343 322 310 298 287 277 269 265 252 245 242 239 204 162 165 125 335 354 226 325 4 342 337 331 324 322 330 320 313 306 299 292 299 311 306 296 289 287 286 290 289 294 292
331 327 327 326 323 318 312 303 295 288 281 274 266 259 261 253 139 155 96 11 7 8 98 100 29 4 8 5 342 340 328 323 320 312 308 302 301 293 294 292 291 287 292 292 292 293 288
336 332 329 326 323 319 314 307 301 292 281 268 253 241 237 183 120 96 147 253 4 30 32 53 40 9 11 15 345 345 342 328 315 316 315 307 310 307 301 294 291 292 297 295 293 290 292
333 336 333 329 326 322 318 313 308 301 292 276 249 218 146 70 68 84 99 52 42 16 4 28 28 16 11 4 354 347 344 330 329 317 306 290 302 302 302 304 300 301 299 297 295 291 284
343 337 334 331 329 327 325 322 320 315 307 288 256 124 63 51 45 48 37 29 3 355 4 358 354 353 353 342 340 338 331 322 317 314 310 311 303 300 291 292 295 295 296 293 290 284 282
347 343 341 339 336 334 331 330 329 326 319 305 241 57 57 44 42 21 20 11 350 351 346 349 335 336 337 339 337 335 331 324 321 312 310 307 301 308 310 290 296 288 281 282 289 287 288
348 348 348 345 344 339 335 333 332 332 326 315 44 46 29 3 23 22 10 351 345 343 343 336 335 336 340 343 336 334 332 326 327 328 312 311 306 315 310 306 300 296 285 285 283 284 286
350 353 354 352 347 342 339 338 337 336 334 346 34 28 10 359 12 8 358 351 350 350 343 342 338 338 333 328 327 328 327 330 323 332 330 315 301 310 313 310 301 293 298 290 287 284 281
357 356 356 354 351 347 345 343 341 339 336 3 25 23 6 349 15 8 2 354 347 343 343 341 336 332 332 331 329 325 322 323 324 319 321 315 304 299 304 298 297 297 293 290 288 280 280
355 357 356 355 353 352 348 346 345 342 336 10 25 22 1 1 12 12 5 353 347 343 343 344 342 339 333 330 327 325 320 322 336 332 321 317 306 297 296 297 293 287 288 289 283 283 281
355 356 355 352 351 349 347 346 344 347 354 20 25 26 11 13 9 5 359 352 349 346 344 344 337 337 336 331 328 330 326 327 326 325 320 318 306 300 298 304 306 296 294 294 295 290 282
357 354 355 356 358 359 355 353 347 347 354 22 22 18 11 14 12 359 350 347 344 347 346 345 339 340 334 329 327 322 320 324 324 320 318 314 302 297 295 294 296 291 292 291 288 285 283
357 359 360 1 1 1 0 356 352 349 353 18 14 17 12 3 0 357 351 346 341 339 345 344 340 337 334 328 324 321 323 321 321 320 320 316 303 301 297 297 295 292 289 285 284 284 281
357 359 0 2 3 3 3 2 2 355 2 15 14 9 5 359 356 353 351 347 343 340 341 336 333 335 333 326 322 320 323 322 320 319 316 313 304 304 298 299 296 292 290 288 285 283 284
1 4 5 6 6 5 5 5 5 4 10 12 9 7 2 358 355 350 348 346 343 340 339 340 335 330 328 325 326 322 318 315 312 312 312 310 309 309 302 305 303 295 293 291 289 285 285
2 2 2 3 4 5 4 4 5 8 14 15 9 3 358 352 349 346 343 339 335 335 330 331 331 328 330 332 328 324 318 314 312 310 309 309 311 314 311 314 303 311 312 306 300 298 300
358 358 360 1 2 3 3 3 5 7 8 5 3 357 354 347 346 340 337 335 334 333 330 329 329 332 335 332 328 327 327 327 327 321 322 315 318 319 315 311 309 309 323 316 309 299 312
353 355 356 357 358 359 1 1 2 4 4 3 356 358 351 344 345 343 339 337 334 333 335 336 338 335 334 332 334 328 324 322 329 331 341 337 324 320 317 313 309 312 306 317 311 298 300
349 351 352 352 353 355 357 358 359 360 0 0 354 357 349 341 342 340 337 339 339 335 331 334 338 339 339 329 326 327 325 325 326 326 323 324 324 319 317 314 313 317 315 316 307 302 305
346 348 348 350 352 354 355 357 356 356 355 356 350 357 348 340 336 334 333 331 334 334 330 335 337 346 341 335 334 331 330 328 323 321 324 320 321 319 320 318 316 330 307 303 304 302 297
341 345 348 350 351 352 353 353 354 355 354 354 344 349 347 338 333 333 328 325 325 321 325 333 329 330 338 336 336 338 328 324 317 305 316 319 324 320 318 314 316 277 301 297 304 301 298